Year,Month,Day,Hour,Minute,Value (Times are PST for temperature in C)
2019,04,30,00,00,3.40
2019,04,30,00,01,3.40
2019,04,30,00,02,3.30
2019,04,30,00,03,3.30
2019,04,30,00,04,3.30
2019,04,30,00,05,3.20
2019,04,30,00,06,3.20
2019,04,30,00,07,3.20
2019,04,30,00,08,3.10
2019,04,30,00,09,3.10
2019,04,30,00,10,3.00
2019,04,30,00,11,3.00
2019,04,30,00,12,2.90
2019,04,30,00,13,2.90
2019,04,30,00,14,2.80
2019,04,30,00,15,2.80
2019,04,30,00,16,2.70
2019,04,30,00,17,2.70
2019,04,30,00,18,2.70
2019,04,30,00,19,2.60
2019,04,30,00,20,2.60
2019,04,30,00,21,2.50
2019,04,30,00,22,2.50
2019,04,30,00,23,2.50
2019,04,30,00,24,2.40
2019,04,30,00,25,2.40
2019,04,30,00,26,2.40
2019,04,30,00,27,2.30
2019,04,30,00,28,2.30
2019,04,30,00,29,2.30
2019,04,30,00,30,2.30
2019,04,30,00,31,2.30
2019,04,30,00,32,2.20
2019,04,30,00,33,2.20
2019,04,30,00,34,2.20
2019,04,30,00,35,2.20
2019,04,30,00,36,2.10
2019,04,30,00,37,2.10
2019,04,30,00,38,2.10
2019,04,30,00,39,2.10
2019,04,30,00,40,2.00
2019,04,30,00,41,2.00
2019,04,30,00,42,2.00
2019,04,30,00,43,2.00
2019,04,30,00,44,2.00
2019,04,30,00,45,2.00
2019,04,30,00,46,2.00
2019,04,30,00,47,2.00
2019,04,30,00,48,1.80
2019,04,30,00,49,1.80
2019,04,30,00,50,1.80
2019,04,30,00,51,1.80
2019,04,30,00,52,1.70
2019,04,30,00,53,1.70
2019,04,30,00,54,1.70
2019,04,30,00,55,1.70
2019,04,30,00,56,1.60
2019,04,30,00,57,1.60
2019,04,30,00,58,1.60
2019,04,30,00,59,1.60
2019,04,30,01,00,1.60
2019,04,30,01,01,1.60
2019,04,30,01,02,1.50
2019,04,30,01,03,1.50
2019,04,30,01,04,1.50
2019,04,30,01,05,1.50
2019,04,30,01,06,1.40
2019,04,30,01,07,1.40
2019,04,30,01,08,1.40
2019,04,30,01,09,1.30
2019,04,30,01,10,1.30
2019,04,30,01,11,1.30
2019,04,30,01,12,1.30
2019,04,30,01,13,1.30
2019,04,30,01,14,1.20
2019,04,30,01,15,1.20
2019,04,30,01,16,1.20
2019,04,30,01,17,1.20
2019,04,30,01,18,1.20
2019,04,30,01,19,1.10
2019,04,30,01,20,1.10
2019,04,30,01,21,1.10
2019,04,30,01,22,1.10
2019,04,30,01,23,1.00
2019,04,30,01,24,1.00
2019,04,30,01,25,1.00
2019,04,30,01,26,1.00
2019,04,30,01,27,0.90
2019,04,30,01,28,0.90
2019,04,30,01,29,0.90
2019,04,30,01,30,0.90
2019,04,30,01,31,0.90
2019,04,30,01,32,0.80
2019,04,30,01,33,0.80
2019,04,30,01,34,0.80
2019,04,30,01,35,0.80
2019,04,30,01,36,0.80
2019,04,30,01,37,0.80
2019,04,30,01,38,0.70
2019,04,30,01,39,0.70
2019,04,30,01,40,0.70
2019,04,30,01,41,0.70
2019,04,30,01,42,0.70
2019,04,30,01,43,0.70
2019,04,30,01,44,0.60
2019,04,30,01,45,0.60
2019,04,30,01,46,0.60
2019,04,30,01,47,0.60
2019,04,30,01,48,0.60
2019,04,30,01,49,0.60
2019,04,30,01,50,0.60
2019,04,30,01,51,0.60
2019,04,30,01,52,0.60
2019,04,30,01,53,0.60
2019,04,30,01,54,0.50
2019,04,30,01,55,0.60
2019,04,30,01,56,0.60
2019,04,30,01,57,0.50
2019,04,30,01,58,0.50
2019,04,30,01,59,0.50
2019,04,30,02,00,0.50
2019,04,30,02,01,0.50
2019,04,30,02,02,0.50
2019,04,30,02,03,0.50
2019,04,30,02,04,0.50
2019,04,30,02,05,0.50
2019,04,30,02,06,0.50
2019,04,30,02,07,0.50
2019,04,30,02,08,0.40
2019,04,30,02,09,0.40
2019,04,30,02,10,0.40
2019,04,30,02,11,0.40
2019,04,30,02,12,0.40
2019,04,30,02,13,0.40
2019,04,30,02,14,0.40
2019,04,30,02,15,0.40
2019,04,30,02,16,0.40
2019,04,30,02,17,0.40
2019,04,30,02,18,0.30
2019,04,30,02,19,0.30
2019,04,30,02,20,0.30
2019,04,30,02,21,0.30
2019,04,30,02,22,0.30
2019,04,30,02,23,0.30
2019,04,30,02,24,0.30
2019,04,30,02,25,0.30
2019,04,30,02,26,0.30
2019,04,30,02,27,0.30
2019,04,30,02,28,0.20
2019,04,30,02,29,0.20
2019,04,30,02,30,0.20
2019,04,30,02,31,0.20
2019,04,30,02,32,0.20
2019,04,30,02,33,0.10
2019,04,30,02,34,0.10
2019,04,30,02,35,0.10
2019,04,30,02,36,0.10
2019,04,30,02,37,0.10
2019,04,30,02,38,0.00
2019,04,30,02,39,0.00
2019,04,30,02,40,0.00
2019,04,30,02,41,0.00
2019,04,30,02,42,0.00
2019,04,30,02,43,-0.10
2019,04,30,02,44,-0.10
2019,04,30,02,45,-0.10
2019,04,30,02,46,-0.10
2019,04,30,02,47,-0.10
2019,04,30,02,48,-0.10
2019,04,30,02,49,-0.20
2019,04,30,02,50,-0.20
2019,04,30,02,51,-0.20
2019,04,30,02,52,-0.20
2019,04,30,02,53,-0.20
2019,04,30,02,54,-0.20
2019,04,30,02,55,-0.20
2019,04,30,02,56,-0.20
2019,04,30,02,57,-0.20
2019,04,30,02,58,-0.20
2019,04,30,02,59,-0.20
2019,04,30,03,00,-0.20
2019,04,30,03,01,-0.30
2019,04,30,03,02,-0.30
2019,04,30,03,03,-0.30
2019,04,30,03,04,-0.30
2019,04,30,03,05,-0.30
2019,04,30,03,06,-0.30
2019,04,30,03,07,-0.30
2019,04,30,03,08,-0.30
2019,04,30,03,09,-0.30
2019,04,30,03,10,-0.30
2019,04,30,03,11,-0.40
2019,04,30,03,12,-0.40
2019,04,30,03,13,-0.40
2019,04,30,03,14,-0.40
2019,04,30,03,15,-0.40
2019,04,30,03,16,-0.40
2019,04,30,03,17,-0.50
2019,04,30,03,18,-0.50
2019,04,30,03,19,-0.50
2019,04,30,03,20,-0.50
2019,04,30,03,21,-0.60
2019,04,30,03,22,-0.60
2019,04,30,03,23,-0.60
2019,04,30,03,24,-0.60
2019,04,30,03,25,-0.60
2019,04,30,03,26,-0.60
2019,04,30,03,27,-0.60
2019,04,30,03,28,-0.60
2019,04,30,03,29,-0.60
2019,04,30,03,30,-0.60
2019,04,30,03,31,-0.60
2019,04,30,03,32,-0.60
2019,04,30,03,33,-0.60
2019,04,30,03,34,-0.70
2019,04,30,03,35,-0.70
2019,04,30,03,36,-0.70
2019,04,30,03,37,-0.70
2019,04,30,03,38,-0.70
2019,04,30,03,39,-0.70
2019,04,30,03,40,-0.80
2019,04,30,03,41,-0.80
2019,04,30,03,42,-0.80
2019,04,30,03,43,-0.80
2019,04,30,03,44,-0.80
2019,04,30,03,45,-0.80
2019,04,30,03,46,-0.80
2019,04,30,03,47,-0.80
2019,04,30,03,48,-0.90
2019,04,30,03,49,-0.90
2019,04,30,03,50,-0.90
2019,04,30,03,51,-0.90
2019,04,30,03,52,-0.90
2019,04,30,03,53,-0.90
2019,04,30,03,54,-0.90
2019,04,30,03,55,-1.00
2019,04,30,03,56,-1.00
2019,04,30,03,57,-1.00
2019,04,30,03,58,-1.10
2019,04,30,03,59,-1.10
2019,04,30,04,00,-1.10
2019,04,30,04,01,-1.10
2019,04,30,04,02,-1.20
2019,04,30,04,03,-1.20
2019,04,30,04,04,-1.20
2019,04,30,04,05,-1.20
2019,04,30,04,06,-1.30
2019,04,30,04,07,-1.30
2019,04,30,04,08,-1.30
2019,04,30,04,09,-1.40
2019,04,30,04,10,-1.40
2019,04,30,04,11,-1.40
2019,04,30,04,12,-1.40
2019,04,30,04,13,-1.40
2019,04,30,04,14,-1.40
2019,04,30,04,15,-1.40
2019,04,30,04,16,-1.40
2019,04,30,04,17,-1.40
2019,04,30,04,18,-1.40
2019,04,30,04,19,-1.40
2019,04,30,04,20,-1.40
2019,04,30,04,21,-1.50
2019,04,30,04,22,-1.40
2019,04,30,04,23,-1.50
2019,04,30,04,24,-1.50
2019,04,30,04,25,-1.50
2019,04,30,04,26,-1.50
2019,04,30,04,27,-1.50
2019,04,30,04,28,-1.50
2019,04,30,04,29,-1.50
2019,04,30,04,30,-1.50
2019,04,30,04,31,-1.50
2019,04,30,04,32,-1.60
2019,04,30,04,33,-1.60
2019,04,30,04,34,-1.60
2019,04,30,04,35,-1.60
2019,04,30,04,36,-1.60
2019,04,30,04,37,-1.60
2019,04,30,04,38,-1.60
2019,04,30,04,39,-1.60
2019,04,30,04,40,-1.60
2019,04,30,04,41,-1.60
2019,04,30,04,42,-1.60
2019,04,30,04,43,-1.60
2019,04,30,04,44,-1.60
2019,04,30,04,45,-1.60
2019,04,30,04,46,-1.70
2019,04,30,04,47,-1.70
2019,04,30,04,48,-1.70
2019,04,30,04,49,-1.70
2019,04,30,04,50,-1.70
2019,04,30,04,51,-1.70
2019,04,30,04,52,-1.70
2019,04,30,04,53,-1.70
2019,04,30,04,54,-1.70
2019,04,30,04,55,-1.70
2019,04,30,04,56,-1.80
2019,04,30,04,57,-1.80
2019,04,30,04,58,-1.80
2019,04,30,04,59,-1.80
2019,04,30,05,00,-1.80
2019,04,30,05,01,-1.80
2019,04,30,05,02,-1.90
2019,04,30,05,03,-1.90
2019,04,30,05,04,-1.90
2019,04,30,05,05,-1.90
2019,04,30,05,06,-2.00
2019,04,30,05,07,-2.00
2019,04,30,05,08,-2.00
2019,04,30,05,09,-2.00
2019,04,30,05,10,-2.00
2019,04,30,05,11,-2.00
2019,04,30,05,12,-2.10
2019,04,30,05,13,-2.10
2019,04,30,05,14,-2.10
2019,04,30,05,15,-2.10
2019,04,30,05,16,-2.10
2019,04,30,05,17,-2.10
2019,04,30,05,18,-2.20
2019,04,30,05,19,-2.20
2019,04,30,05,20,-2.20
2019,04,30,05,21,-2.20
2019,04,30,05,22,-2.20
2019,04,30,05,23,-2.20
2019,04,30,05,24,-2.20
2019,04,30,05,25,-2.30
2019,04,30,05,26,-2.30
2019,04,30,05,27,-2.30
2019,04,30,05,28,-2.30
2019,04,30,05,29,-2.30
2019,04,30,05,30,-2.30
2019,04,30,05,31,-2.30
2019,04,30,05,32,-2.40
2019,04,30,05,33,-2.40
2019,04,30,05,34,-2.40
2019,04,30,05,35,-2.40
2019,04,30,05,36,-2.40
2019,04,30,05,37,-2.50
2019,04,30,05,38,-2.50
2019,04,30,05,39,-2.60
2019,04,30,05,40,-2.60
2019,04,30,05,41,-2.60
2019,04,30,05,42,-2.60
2019,04,30,05,43,-2.50
2019,04,30,05,44,-2.50
2019,04,30,05,45,-2.50
2019,04,30,05,46,-2.50
2019,04,30,05,47,-2.40
2019,04,30,05,48,-2.40
2019,04,30,05,49,-2.40
2019,04,30,05,50,-2.40
2019,04,30,05,51,-2.40
2019,04,30,05,52,-2.40
2019,04,30,05,53,-2.50
2019,04,30,05,54,-2.50
2019,04,30,05,55,-2.50
2019,04,30,05,56,-2.50
2019,04,30,05,57,-2.50
2019,04,30,05,58,-2.50
2019,04,30,05,59,-2.50
2019,04,30,06,00,-2.50
2019,04,30,06,01,-2.50
2019,04,30,06,02,-2.50
2019,04,30,06,03,-2.50
2019,04,30,06,04,-2.50
2019,04,30,06,05,-2.50
2019,04,30,06,06,-2.50
2019,04,30,06,07,-2.50
2019,04,30,06,08,-2.50
2019,04,30,06,09,-2.50
2019,04,30,06,10,-2.50
2019,04,30,06,11,-2.50
2019,04,30,06,12,-2.50
2019,04,30,06,13,-2.40
2019,04,30,06,14,-2.40
2019,04,30,06,15,-2.40
2019,04,30,06,16,-2.40
2019,04,30,06,17,-2.40
2019,04,30,06,18,-2.40
2019,04,30,06,19,-2.40
2019,04,30,06,20,-2.40
2019,04,30,06,21,-2.50
2019,04,30,06,22,-2.50
2019,04,30,06,23,-2.50
2019,04,30,06,24,-2.50
2019,04,30,06,25,-2.50
2019,04,30,06,26,-2.50
2019,04,30,06,27,-2.50
2019,04,30,06,28,-2.50
2019,04,30,06,29,-2.60
2019,04,30,06,30,-2.60
2019,04,30,06,31,-2.60
2019,04,30,06,32,-2.60
2019,04,30,06,33,-2.60
2019,04,30,06,34,-2.60
2019,04,30,06,35,-2.60
2019,04,30,06,36,-2.60
2019,04,30,06,37,-2.60
2019,04,30,06,38,-2.60
2019,04,30,06,39,-2.60
2019,04,30,06,40,-2.60
2019,04,30,06,41,-2.60
2019,04,30,06,42,-2.60
2019,04,30,06,43,-2.70
2019,04,30,06,44,-2.70
2019,04,30,06,45,-2.70
2019,04,30,06,46,-2.70
2019,04,30,06,47,-2.70
2019,04,30,06,48,-2.70
2019,04,30,06,49,-2.70
2019,04,30,06,50,-2.70
2019,04,30,06,51,-2.70
2019,04,30,06,52,-2.70
2019,04,30,06,53,-2.70
2019,04,30,06,54,-2.70
2019,04,30,06,55,-2.70
2019,04,30,06,56,-2.80
2019,04,30,06,57,-2.80
2019,04,30,06,58,-2.80
2019,04,30,06,59,-2.80
2019,04,30,07,00,-2.80
2019,04,30,07,01,-2.80
2019,04,30,07,02,-2.80
2019,04,30,07,03,-2.80
2019,04,30,07,04,-2.80
2019,04,30,07,05,-2.80
2019,04,30,07,06,-2.80
2019,04,30,07,07,-2.80
2019,04,30,07,08,-2.80
2019,04,30,07,09,-2.80
2019,04,30,07,10,-2.90
2019,04,30,07,11,-2.90
2019,04,30,07,12,-2.90
2019,04,30,07,13,-2.90
2019,04,30,07,14,-2.90
2019,04,30,07,15,-2.90
2019,04,30,07,16,-2.90
2019,04,30,07,17,-2.90
2019,04,30,07,18,-2.90
2019,04,30,07,19,-2.80
2019,04,30,07,20,-2.90
2019,04,30,07,21,-2.80
2019,04,30,07,22,-2.90
2019,04,30,07,23,-2.90
2019,04,30,07,24,-2.90
2019,04,30,07,25,-2.90
2019,04,30,07,26,-2.90
2019,04,30,07,27,-2.90
2019,04,30,07,28,-2.90
2019,04,30,07,29,-2.90
2019,04,30,07,30,-2.90
2019,04,30,07,31,-2.90
2019,04,30,07,32,-3.00
2019,04,30,07,33,-3.00
2019,04,30,07,34,-3.00
2019,04,30,07,35,-3.00
2019,04,30,07,36,-3.00
2019,04,30,07,37,-3.00
2019,04,30,07,38,-3.00
2019,04,30,07,39,-3.00
2019,04,30,07,40,-3.10
2019,04,30,07,41,-3.10
2019,04,30,07,42,-3.10
2019,04,30,07,43,-3.00
2019,04,30,07,44,-3.00
2019,04,30,07,45,-3.00
2019,04,30,07,46,-3.00
2019,04,30,07,47,-3.00
2019,04,30,07,48,-2.90
2019,04,30,07,49,-2.90
2019,04,30,07,50,-2.90
2019,04,30,07,51,-2.80
2019,04,30,07,52,-2.80
2019,04,30,07,53,-2.80
2019,04,30,07,54,-2.70
2019,04,30,07,55,-2.70
2019,04,30,07,56,-2.70
2019,04,30,07,57,-2.70
2019,04,30,07,58,-2.70
2019,04,30,07,59,-2.70
2019,04,30,08,00,-2.60
2019,04,30,08,01,-2.60
2019,04,30,08,02,-2.60
2019,04,30,08,03,-2.60
2019,04,30,08,04,-2.50
2019,04,30,08,05,-2.50
2019,04,30,08,06,-2.40
2019,04,30,08,07,-2.40
2019,04,30,08,08,-2.40
2019,04,30,08,09,-2.40
2019,04,30,08,10,-2.30
2019,04,30,08,11,-2.30
2019,04,30,08,12,-2.30
2019,04,30,08,13,-2.30
2019,04,30,08,14,-2.30
2019,04,30,08,15,-2.30
2019,04,30,08,16,-2.30
2019,04,30,08,17,-2.30
2019,04,30,08,18,-2.20
2019,04,30,08,19,-2.20
2019,04,30,08,20,-2.20
2019,04,30,08,21,-2.20
2019,04,30,08,22,-2.20
2019,04,30,08,23,-2.20
2019,04,30,08,24,-2.20
2019,04,30,08,25,-2.20
2019,04,30,08,26,-2.20
2019,04,30,08,27,-2.20
2019,04,30,08,28,-2.20
2019,04,30,08,29,-2.20
2019,04,30,08,30,-2.20
2019,04,30,08,31,-2.20
2019,04,30,08,32,-2.20
2019,04,30,08,33,-2.20
2019,04,30,08,34,-2.20
2019,04,30,08,35,-2.20
2019,04,30,08,36,-2.10
2019,04,30,08,37,-2.10
2019,04,30,08,38,-2.10
2019,04,30,08,39,-2.10
2019,04,30,08,40,-2.10
2019,04,30,08,41,-2.10
2019,04,30,08,42,-2.00
2019,04,30,08,43,-2.00
2019,04,30,08,44,-2.00
2019,04,30,08,45,-1.90
2019,04,30,08,46,-1.90
2019,04,30,08,47,-1.90
2019,04,30,08,48,-1.90
2019,04,30,08,49,-1.90
2019,04,30,08,50,-1.80
2019,04,30,08,51,-1.80
2019,04,30,08,52,-1.80
2019,04,30,08,53,-1.70
2019,04,30,08,54,-1.60
2019,04,30,08,55,-1.50
2019,04,30,08,56,-1.50
2019,04,30,08,57,-1.40
2019,04,30,08,58,-1.30
2019,04,30,08,59,-1.20
2019,04,30,09,00,-1.10
2019,04,30,09,01,-1.10
2019,04,30,09,02,-1.00
2019,04,30,09,03,-0.90
2019,04,30,09,04,-0.80
2019,04,30,09,05,-0.70
2019,04,30,09,06,-0.60
2019,04,30,09,07,-0.50
2019,04,30,09,08,-0.40
2019,04,30,09,09,-0.40
2019,04,30,09,10,-0.30
2019,04,30,09,11,-0.20
2019,04,30,09,12,-0.20
2019,04,30,09,13,-0.10
2019,04,30,09,14,0.00
2019,04,30,09,15,0.10
2019,04,30,09,16,0.10
2019,04,30,09,17,0.20
2019,04,30,09,18,0.30
2019,04,30,09,19,0.30
2019,04,30,09,20,0.40
2019,04,30,09,21,0.50
2019,04,30,09,22,0.60
2019,04,30,09,23,0.60
2019,04,30,09,24,0.70
2019,04,30,09,25,0.80
2019,04,30,09,26,0.80
2019,04,30,09,27,0.90
2019,04,30,09,28,1.00
2019,04,30,09,29,1.00
2019,04,30,09,30,1.10
2019,04,30,09,31,1.10
2019,04,30,09,32,1.20
2019,04,30,09,33,1.20
2019,04,30,09,34,1.30
2019,04,30,09,35,1.40
2019,04,30,09,36,1.50
2019,04,30,09,37,1.50
2019,04,30,09,38,1.60
2019,04,30,09,39,1.70
2019,04,30,09,40,1.70
2019,04,30,09,41,1.80
2019,04,30,09,42,1.80
2019,04,30,09,43,1.90
2019,04,30,09,44,2.00
2019,04,30,09,45,2.10
2019,04,30,09,46,2.10
2019,04,30,09,47,2.20
2019,04,30,09,48,2.30
2019,04,30,09,49,2.30
2019,04,30,09,50,2.30
2019,04,30,09,51,2.30
2019,04,30,09,52,2.30
2019,04,30,09,53,2.30
2019,04,30,09,54,2.30
2019,04,30,09,55,2.30
2019,04,30,09,56,2.40
2019,04,30,09,57,2.40
2019,04,30,09,58,2.40
2019,04,30,09,59,2.40
2019,04,30,10,00,2.50
2019,04,30,10,01,2.60
2019,04,30,10,02,2.60
2019,04,30,10,03,2.60
2019,04,30,10,04,2.70
2019,04,30,10,05,2.80
2019,04,30,10,06,2.80
2019,04,30,10,07,2.90
2019,04,30,10,08,2.90
2019,04,30,10,09,3.00
2019,04,30,10,10,3.10
2019,04,30,10,11,3.10
2019,04,30,10,12,3.10
2019,04,30,10,13,3.20
2019,04,30,10,14,3.20
2019,04,30,10,15,3.30
2019,04,30,10,16,3.40
2019,04,30,10,17,3.50
2019,04,30,10,18,3.60
2019,04,30,10,19,3.60
2019,04,30,10,20,3.60
2019,04,30,10,21,3.70
2019,04,30,10,22,3.80
2019,04,30,10,23,3.80
2019,04,30,10,24,3.90
2019,04,30,10,25,4.00
2019,04,30,10,26,4.10
2019,04,30,10,27,4.20
2019,04,30,10,28,4.20
2019,04,30,10,29,4.20
2019,04,30,10,30,4.30
2019,04,30,10,31,4.30
2019,04,30,10,32,4.40
2019,04,30,10,33,4.40
2019,04,30,10,34,4.50
2019,04,30,10,35,4.60
2019,04,30,10,36,4.60
2019,04,30,10,37,4.70
2019,04,30,10,38,4.80
2019,04,30,10,39,4.80
2019,04,30,10,40,4.90
2019,04,30,10,41,5.00
2019,04,30,10,42,5.00
2019,04,30,10,43,5.10
2019,04,30,10,44,5.10
2019,04,30,10,45,5.20
2019,04,30,10,46,5.20
2019,04,30,10,47,5.20
2019,04,30,10,48,5.20
2019,04,30,10,49,5.30
2019,04,30,10,50,5.30
2019,04,30,10,51,5.40
2019,04,30,10,52,5.40
2019,04,30,10,53,5.40
2019,04,30,10,54,5.40
2019,04,30,10,55,5.40
2019,04,30,10,56,5.40
2019,04,30,10,57,5.40
2019,04,30,10,58,5.40
2019,04,30,10,59,5.40
2019,04,30,11,00,5.40
2019,04,30,11,01,5.50
2019,04,30,11,02,5.50
2019,04,30,11,03,5.60
2019,04,30,11,04,5.60
2019,04,30,11,05,5.70
2019,04,30,11,06,5.70
2019,04,30,11,07,5.80
2019,04,30,11,08,5.90
2019,04,30,11,09,6.00
2019,04,30,11,10,6.10
2019,04,30,11,11,6.20
2019,04,30,11,12,6.30
2019,04,30,11,13,6.40
2019,04,30,11,14,6.60
2019,04,30,11,15,6.70
2019,04,30,11,16,6.70
2019,04,30,11,17,6.80
2019,04,30,11,18,6.80
2019,04,30,11,19,6.80
2019,04,30,11,20,6.90
2019,04,30,11,21,6.90
2019,04,30,11,22,6.90
2019,04,30,11,23,7.00
2019,04,30,11,24,7.00
2019,04,30,11,25,7.10
2019,04,30,11,26,7.10
2019,04,30,11,27,7.20
2019,04,30,11,28,7.20
2019,04,30,11,29,7.30
2019,04,30,11,30,7.30
2019,04,30,11,31,7.40
2019,04,30,11,32,7.40
2019,04,30,11,33,7.50
2019,04,30,11,34,7.60
2019,04,30,11,35,7.70
2019,04,30,11,36,7.80
2019,04,30,11,37,7.90
2019,04,30,11,38,7.90
2019,04,30,11,39,8.00
2019,04,30,11,40,8.20
2019,04,30,11,41,8.30
2019,04,30,11,42,8.30
2019,04,30,11,43,8.40
2019,04,30,11,44,8.50
2019,04,30,11,45,8.60
2019,04,30,11,46,8.70
2019,04,30,11,47,8.80
2019,04,30,11,48,8.80
2019,04,30,11,49,8.80
2019,04,30,11,50,8.90
2019,04,30,11,51,9.00
2019,04,30,11,52,9.00
2019,04,30,11,53,9.00
2019,04,30,11,54,9.10
2019,04,30,11,55,9.10
2019,04,30,11,56,9.20
2019,04,30,11,57,9.20
2019,04,30,11,58,9.30
2019,04,30,11,59,9.30
2019,04,30,12,00,9.30
2019,04,30,12,01,9.40
2019,04,30,12,02,9.50
2019,04,30,12,03,9.60
2019,04,30,12,04,9.70
2019,04,30,12,05,9.70
2019,04,30,12,06,9.80
2019,04,30,12,07,9.80
2019,04,30,12,08,9.80
2019,04,30,12,09,9.80
2019,04,30,12,10,9.90
2019,04,30,12,11,9.90
2019,04,30,12,12,9.90
2019,04,30,12,13,9.90
2019,04,30,12,14,10.00
2019,04,30,12,15,10.00
2019,04,30,12,16,10.10
2019,04,30,12,17,10.20
2019,04,30,12,18,10.20
2019,04,30,12,19,10.20
2019,04,30,12,20,10.30
2019,04,30,12,21,10.30
2019,04,30,12,22,10.30
2019,04,30,12,23,10.40
2019,04,30,12,24,10.50
2019,04,30,12,25,10.50
2019,04,30,12,26,10.60
2019,04,30,12,27,10.70
2019,04,30,12,28,10.70
2019,04,30,12,29,10.80
2019,04,30,12,30,10.80
2019,04,30,12,31,10.80
2019,04,30,12,32,10.80
2019,04,30,12,33,10.80
2019,04,30,12,34,10.90
2019,04,30,12,35,11.00
2019,04,30,12,36,11.10
2019,04,30,12,37,11.20
2019,04,30,12,38,11.20
2019,04,30,12,39,11.20
2019,04,30,12,40,11.20
2019,04,30,12,41,11.20
2019,04,30,12,42,11.20
2019,04,30,12,43,11.20
2019,04,30,12,44,11.20
2019,04,30,12,45,11.20
2019,04,30,12,46,11.30
2019,04,30,12,47,11.30
2019,04,30,12,48,11.30
2019,04,30,12,49,11.40
2019,04,30,12,50,11.40
2019,04,30,12,51,11.50
2019,04,30,12,52,11.50
2019,04,30,12,53,11.60
2019,04,30,12,54,11.60
2019,04,30,12,55,11.70
2019,04,30,12,56,11.80
2019,04,30,12,57,11.80
2019,04,30,12,58,11.80
2019,04,30,12,59,11.80
2019,04,30,13,00,11.90
2019,04,30,13,01,11.90
2019,04,30,13,02,12.00
2019,04,30,13,03,12.00
2019,04,30,13,04,12.00
2019,04,30,13,05,12.10
2019,04,30,13,06,12.20
2019,04,30,13,07,12.30
2019,04,30,13,08,12.40
2019,04,30,13,09,12.50
2019,04,30,13,10,12.60
2019,04,30,13,11,12.70
2019,04,30,13,12,12.70
2019,04,30,13,13,12.80
2019,04,30,13,14,12.80
2019,04,30,13,15,12.80
2019,04,30,13,16,12.80
2019,04,30,13,17,12.90
2019,04,30,13,18,12.90
2019,04,30,13,19,13.00
2019,04,30,13,20,13.10
2019,04,30,13,21,13.10
2019,04,30,13,22,13.20
2019,04,30,13,23,13.20
2019,04,30,13,24,13.30
2019,04,30,13,25,13.30
2019,04,30,13,26,13.40
2019,04,30,13,27,13.40
2019,04,30,13,28,13.50
2019,04,30,13,29,13.50
2019,04,30,13,30,13.50
2019,04,30,13,31,13.60
2019,04,30,13,32,13.60
2019,04,30,13,33,13.70
2019,04,30,13,34,13.70
2019,04,30,13,35,13.80
2019,04,30,13,36,13.80
2019,04,30,13,37,13.90
2019,04,30,13,38,13.90
2019,04,30,13,39,13.90
2019,04,30,13,40,13.90
2019,04,30,13,41,14.00
2019,04,30,13,42,14.00
2019,04,30,13,43,14.00
2019,04,30,13,44,14.00
2019,04,30,13,45,14.10
2019,04,30,13,46,14.10
2019,04,30,13,47,14.10
2019,04,30,13,48,14.20
2019,04,30,13,49,14.20
2019,04,30,13,50,14.30
2019,04,30,13,51,14.30
2019,04,30,13,52,14.40
2019,04,30,13,53,14.40
2019,04,30,13,54,14.50
2019,04,30,13,55,14.60
2019,04,30,13,56,14.60
2019,04,30,13,57,14.70
2019,04,30,13,58,14.70
2019,04,30,13,59,14.80
2019,04,30,14,00,14.90
2019,04,30,14,01,14.90
2019,04,30,14,02,15.00
2019,04,30,14,03,15.10
2019,04,30,14,04,15.10
2019,04,30,14,05,15.10
2019,04,30,14,06,15.10
2019,04,30,14,07,15.10
2019,04,30,14,08,15.20
2019,04,30,14,09,15.20
2019,04,30,14,10,15.20
2019,04,30,14,11,15.20
2019,04,30,14,12,15.20
2019,04,30,14,13,15.30
2019,04,30,14,14,15.30
2019,04,30,14,15,15.40
2019,04,30,14,16,15.40
2019,04,30,14,17,15.50
2019,04,30,14,18,15.40
2019,04,30,14,19,15.40
2019,04,30,14,20,15.30
2019,04,30,14,21,15.30
2019,04,30,14,22,15.20
2019,04,30,14,23,15.20
2019,04,30,14,24,15.10
2019,04,30,14,25,15.10
2019,04,30,14,26,15.10
2019,04,30,14,27,15.10
2019,04,30,14,28,15.10
2019,04,30,14,29,15.10
2019,04,30,14,30,15.10
2019,04,30,14,31,15.10
2019,04,30,14,32,15.20
2019,04,30,14,33,15.20
2019,04,30,14,34,15.20
2019,04,30,14,35,15.20
2019,04,30,14,36,15.30
2019,04,30,14,37,15.40
2019,04,30,14,38,15.40
2019,04,30,14,39,15.30
2019,04,30,14,40,15.30
2019,04,30,14,41,15.30
2019,04,30,14,42,15.30
2019,04,30,14,43,15.30
2019,04,30,14,44,15.30
2019,04,30,14,45,15.40
2019,04,30,14,46,15.40
2019,04,30,14,47,15.50
2019,04,30,14,48,15.50
2019,04,30,14,49,15.50
2019,04,30,14,50,15.50
2019,04,30,14,51,15.50
2019,04,30,14,52,15.50
2019,04,30,14,53,15.50
2019,04,30,14,54,15.50
2019,04,30,14,55,15.50
2019,04,30,14,56,15.50
2019,04,30,14,57,15.50
2019,04,30,14,58,15.50
2019,04,30,14,59,15.50
2019,04,30,15,00,15.50
2019,04,30,15,01,15.50
2019,04,30,15,02,15.50
2019,04,30,15,03,15.60
2019,04,30,15,04,15.60
2019,04,30,15,05,15.70
2019,04,30,15,06,15.80
2019,04,30,15,07,15.90
2019,04,30,15,08,16.00
2019,04,30,15,09,16.00
2019,04,30,15,10,16.10
2019,04,30,15,11,16.20
2019,04,30,15,12,16.20
2019,04,30,15,13,16.20
2019,04,30,15,14,16.00
2019,04,30,15,15,15.90
2019,04,30,15,16,15.80
2019,04,30,15,17,15.80
2019,04,30,15,18,15.90
2019,04,30,15,19,15.90
2019,04,30,15,20,16.00
2019,04,30,15,21,16.10
2019,04,30,15,22,16.10
2019,04,30,15,23,16.20
2019,04,30,15,24,16.20
2019,04,30,15,25,16.30
2019,04,30,15,26,16.30
2019,04,30,15,27,16.30
2019,04,30,15,28,16.30
2019,04,30,15,29,16.30
2019,04,30,15,30,16.30
2019,04,30,15,31,16.30
2019,04,30,15,32,16.20
2019,04,30,15,33,16.20
2019,04,30,15,34,16.10
2019,04,30,15,35,16.10
2019,04,30,15,36,16.10
2019,04,30,15,37,16.10
2019,04,30,15,38,16.20
2019,04,30,15,39,16.20
2019,04,30,15,40,16.20
2019,04,30,15,41,16.30
2019,04,30,15,42,16.30
2019,04,30,15,43,16.30
2019,04,30,15,44,16.30
2019,04,30,15,45,16.30
2019,04,30,15,46,16.30
2019,04,30,15,47,16.30
2019,04,30,15,48,16.40
2019,04,30,15,49,16.40
2019,04,30,15,50,16.40
2019,04,30,15,51,16.40
2019,04,30,15,52,16.50
2019,04,30,15,53,16.50
2019,04,30,15,54,16.50
2019,04,30,15,55,16.60
2019,04,30,15,56,16.60
2019,04,30,15,57,16.60
2019,04,30,15,58,16.60
2019,04,30,15,59,16.60
2019,04,30,16,00,16.60
2019,04,30,16,01,16.60
2019,04,30,16,02,16.60
2019,04,30,16,03,16.60
2019,04,30,16,04,16.60
2019,04,30,16,05,16.60
2019,04,30,16,06,16.60
2019,04,30,16,07,16.60
2019,04,30,16,08,16.60
2019,04,30,16,09,16.60
2019,04,30,16,10,16.60
2019,04,30,16,11,16.70
2019,04,30,16,12,16.70
2019,04,30,16,13,16.70
2019,04,30,16,14,16.70
2019,04,30,16,15,16.60
2019,04,30,16,16,16.60
2019,04,30,16,17,16.60
2019,04,30,16,18,16.60
2019,04,30,16,19,16.60
2019,04,30,16,20,16.60
2019,04,30,16,21,16.60
2019,04,30,16,22,16.60
2019,04,30,16,23,16.60
2019,04,30,16,24,16.60
2019,04,30,16,25,16.60
2019,04,30,16,26,16.60
2019,04,30,16,27,16.60
2019,04,30,16,28,16.60
2019,04,30,16,29,16.70
2019,04,30,16,30,16.70
2019,04,30,16,31,16.70
2019,04,30,16,32,16.80
2019,04,30,16,33,16.80
2019,04,30,16,34,16.80
2019,04,30,16,35,16.80
2019,04,30,16,36,16.80
2019,04,30,16,37,16.80
2019,04,30,16,38,16.80
2019,04,30,16,39,16.80
2019,04,30,16,40,16.80
2019,04,30,16,41,16.80
2019,04,30,16,42,16.90
2019,04,30,16,43,16.90
2019,04,30,16,44,16.90
2019,04,30,16,45,16.90
2019,04,30,16,46,16.90
2019,04,30,16,47,16.90
2019,04,30,16,48,16.90
2019,04,30,16,49,16.90
2019,04,30,16,50,16.90
2019,04,30,16,51,16.90
2019,04,30,16,52,16.80
2019,04,30,16,53,16.80
2019,04,30,16,54,16.70
2019,04,30,16,55,16.70
2019,04,30,16,56,16.70
2019,04,30,16,57,16.70
2019,04,30,16,58,16.70
2019,04,30,16,59,16.80
2019,04,30,17,00,16.80
2019,04,30,17,01,16.80
2019,04,30,17,02,16.80
2019,04,30,17,03,16.80
2019,04,30,17,04,16.70
2019,04,30,17,05,16.70
2019,04,30,17,06,16.70
2019,04,30,17,07,16.70
2019,04,30,17,08,16.70
2019,04,30,17,09,16.70
2019,04,30,17,10,16.60
2019,04,30,17,11,16.60
2019,04,30,17,12,16.60
2019,04,30,17,13,16.60
2019,04,30,17,14,16.60
2019,04,30,17,15,16.70
2019,04,30,17,16,16.70
2019,04,30,17,17,16.70
2019,04,30,17,18,16.70
2019,04,30,17,19,16.70
2019,04,30,17,20,16.80
2019,04,30,17,21,16.80
2019,04,30,17,22,16.80
2019,04,30,17,23,16.80
2019,04,30,17,24,16.80
2019,04,30,17,25,16.80
2019,04,30,17,26,16.80
2019,04,30,17,27,16.80
2019,04,30,17,28,16.80
2019,04,30,17,29,16.80
2019,04,30,17,30,16.80
2019,04,30,17,31,16.70
2019,04,30,17,32,16.70
2019,04,30,17,33,16.70
2019,04,30,17,34,16.70